sat.trackr.live / text

‹ back to catalog

STARLINK-5885

NORAD 56352 · 2023-058AM

PAYLOAD ACTIVE UNKNOWN

§ Identity

Operator
Country
US
Launch date
2023-04-27
Launch site
AFWTR
Launch vehicle
Mass (kg)
RCS (m²)

Purposes: comms

External: N2YO · Heavens-Above · Gunter

§ Orbital elements

Epoch: 2026-05-24T23:53:33.921600Z

Period
95.64 min
Inclination
97.4516°
Eccentricity
0.0002825
Mean motion
15.05633607 rev/d
Perigee alt
547.6 km
Apogee alt
551.5 km
Semi-major
6,927.7 km
B*
-1.8853e-4
RAAN
144.9246°
Arg perigee
116.1820°
Mean anomaly
243.9698°
Rev number
16,960

§ Raw data

STARLINK-58851 56352U 23058AM  26144.99553150 -.00002777  00000+0 -18853-3 0  99952 56352  97.4516 144.9246 0002825 116.1820 243.9698 15.05633607169600

JSON: /api/v1/satellites/56352 · /tle

For live sub-satellite position, see the globe view (requires WebGL).

§ Visibility from observer

Set your observer location to see the next 7 days of passes ≥ 10°. The values pass through the URL so the page stays shareable.

No JS? Fill the form by hand. The geolocation button needs JavaScript.